Rockford, IL

1:07 AM CDT on May 28, 2017 (GMT -0500)
Greater Rockford

Weather History for KRFD - September, 2013

Change the Weather History Date:

Saturday, September 28, 2013

  Actual Average Record
Temperature  
Mean Temperature 69 °F 58 °F  
Max Temperature 84 °F 70 °F 91 °F (1952)
Min Temperature 53 °F 47 °F 24 °F (1942)
Degree Days  
Heating Degree Days 0 8  
Month to date heating degree days 62 100  
Since 1 July heating degree days 73 114  
Cooling Degree Days 4 1  
Month to date cooling degree days 125 82  
Year to date cooling degree days 874 809  
Growing Degree Days 18 (Base 50)    
Moisture  
Dew Point 56 °F    
Average Humidity 67    
Maximum Humidity 90    
Minimum Humidity 43    
Precipitation  
Precipitation 0.07 in 0.10 in 2.15 in (1999)
Month to date precipitation 1.61 3.15  
Year to date precipitation 33.61 28.81  
Snow  
Snow 0.00 in 0.00 in 0.00 in ()
Month to date snowfall 0.0 0.0  
Since 1 July snowfall 0.0 0.0  
Since 1 September snowfall 0.0 0.0  
Snow Depth 0.00 in    
Sea Level Pressure  
Sea Level Pressure 29.98 in    
Wind  
Wind Speed 13 mph (SSW)    
Max Wind Speed 30 mph    
Max Gust Speed 37 mph    
Visibility 10 miles    
Events Rain    
T = Trace of Precipitation, MM = Missing Value Source: NWS Daily Summary

Daily Weather History Graph

Daily Weather History Graph

Search for Another Location

Airport or City:

Trip Planner

Search our weather history database for the weather conditions in past years. The results will help you decide how hot, cold, wet, or windy it might be!

Date:

Astronomy

Sep. 28, 2013 Rise Set
Actual Time 6:50 AM CDT 6:42 PM CDT
Civil Twilight 6:22 AM CDT 7:10 PM CDT
Nautical Twilight 5:49 AM CDT 7:43 PM CDT
Astronomical Twilight 5:16 AM CDT 8:15 PM CDT
Moon 12:32 AM CDT 3:06 PM CDT
Length of Visible Light 12h 48m
Length of Day
11h 52m
Waning Crescent, 36% of the Moon is Illuminated
Sep 28
Waning Crescent
Oct 4
New
Oct 11
First Quarter
Oct 18
Full
Oct 26
Last Quarter

Hourly Weather History & Observations

Time (CDT) Temp. Heat Index Dew Point Humidity Pressure Visibility Wind Dir Wind Speed Gust Speed Precip Events Conditions
12:54 AM 62.1 °F - 46.9 °F 58% 30.06 in 10.0 mi SE 10.4 mph - N/A   Clear
1:54 AM 60.1 °F - 46.9 °F 62% 30.06 in 10.0 mi SSE 9.2 mph - N/A   Clear
2:54 AM 59.0 °F - 48.0 °F 67% 30.04 in 10.0 mi SSE 6.9 mph - N/A   Clear
3:54 AM 57.9 °F - 48.0 °F 70% 30.03 in 10.0 mi SE 8.1 mph - N/A   Clear
4:54 AM 55.0 °F - 48.0 °F 77% 30.04 in 10.0 mi SSE 6.9 mph - N/A   Clear
5:54 AM 55.0 °F - 48.0 °F 77% 30.04 in 10.0 mi SE 4.6 mph - N/A   Clear
6:54 AM 53.1 °F - 46.9 °F 80% 30.08 in 10.0 mi SSE 5.8 mph - N/A   Scattered Clouds
7:54 AM 57.0 °F - 50.0 °F 77% 30.06 in 10.0 mi SSE 8.1 mph - N/A   Mostly Cloudy
8:54 AM 63.0 °F - 53.1 °F 70% 30.05 in 10.0 mi SSE 11.5 mph - N/A   Mostly Cloudy
9:54 AM 69.1 °F - 55.9 °F 63% 30.03 in 10.0 mi South 11.5 mph - N/A   Mostly Cloudy
10:54 AM 73.9 °F - 55.9 °F 53% 30.00 in 10.0 mi South 17.3 mph - N/A   Mostly Cloudy
11:54 AM 79.0 °F - 60.1 °F 52% 29.96 in 10.0 mi SSE 18.4 mph - N/A   Mostly Cloudy
12:54 PM 82.0 °F 82.1 °F 59.0 °F 45% 29.94 in 10.0 mi South 26.5 mph 33.4 mph N/A   Mostly Cloudy
1:54 PM 82.0 °F 82.0 °F 57.9 °F 44% 29.92 in 10.0 mi South 23.0 mph 31.1 mph N/A   Mostly Cloudy
2:54 PM 82.9 °F 82.6 °F 57.9 °F 42% 29.90 in 10.0 mi SSW 20.7 mph 33.4 mph N/A   Mostly Cloudy
3:54 PM 81.0 °F 81.3 °F 59.0 °F 47% 29.88 in 10.0 mi South 20.7 mph 29.9 mph N/A   Overcast
4:54 PM 79.0 °F - 59.0 °F 50% 29.88 in 10.0 mi South 23.0 mph 32.2 mph N/A   Overcast
5:54 PM 77.0 °F - 61.0 °F 58% 29.90 in 10.0 mi SW 17.3 mph 26.5 mph 0.00 in Rain Light Rain
6:54 PM 69.1 °F - 66.0 °F 90% 29.92 in 5.0 mi SW 13.8 mph 20.7 mph 0.05 in Rain Light Rain
7:54 PM 69.1 °F - 66.0 °F 90% 29.91 in 9.0 mi South 9.2 mph - 0.00 in   Overcast
8:54 PM 69.1 °F - 66.0 °F 90% 29.92 in 10.0 mi SSW 8.1 mph - 0.00 in Rain Light Rain
9:16 PM 64.4 °F - 60.8 °F 88% 29.94 in 10.0 mi NW 13.8 mph 26.5 mph 0.00 in Rain Light Rain
9:54 PM 62.1 °F - 59.0 °F 90% 29.96 in 10.0 mi NW 8.1 mph - 0.00 in   Overcast
10:01 PM 62.6 °F - 60.8 °F 94% 29.97 in 10.0 mi WNW 10.4 mph 19.6 mph 0.00 in Rain Light Rain
10:25 PM 60.8 °F - 59.0 °F 94% 29.97 in 10.0 mi NW 8.1 mph - 0.00 in Rain Light Rain
10:54 PM 60.1 °F - 57.9 °F 93% 29.97 in 7.0 mi NW 16.1 mph 23.0 mph 0.01 in Rain Light Rain
11:06 PM 57.2 °F - 53.6 °F 88% 29.99 in 10.0 mi NNW 13.8 mph 21.9 mph 0.01 in   Overcast
11:25 PM 57.2 °F - 53.6 °F 88% 29.99 in 10.0 mi NNW 10.4 mph - 0.01 in   Overcast
11:54 PM 57.9 °F - 54.0 °F 87% 29.99 in 10.0 mi NW 8.1 mph - 0.01 in   Mostly Cloudy